Location: Springville
(37.3745°N, 89.2676°W)
Time: 15:19:24
(UTC+00:00)

Cosmos 1244 Rocket - Pass Details

Date: 29 October 2020
Orbit: 954 x 997 km, 82.9° (Epoch: 03 December)

Event Time Altitude Azimuth Distance (km) Brightness Sun altitude
Rises 23:36:07 0° 356° (N) 3,663 7.4 -7.5°
Reaches altitude 10° 23:38:39 10° 359° (N) 2,718 6.7 -8.0°
Maximum altitude 23:44:50 66° 82° (E) 1,061 4.5 -9.2°
Drops below altitude 10° 23:51:04 10° 164° (SSE) 2,731 6.8 -10.4°
Sets 23:53:36 0° 167° (SSE) 3,681 7.5 -10.9°
